Weather History for KHAI - April, 2014

Change the Weather History Date:

Saturday, April 26, 2014

  Actual Average Record
Temperature  
Mean Temperature 51 °F -  
Max Temperature 59 °F 65 °F 87 °F (1986)
Min Temperature 43 °F 38 °F 26 °F (1972)
Degree Days  
Heating Degree Days 14    
Growing Degree Days 1 (Base 50)    
Moisture  
Dew Point 35 °F    
Average Humidity 56    
Maximum Humidity 88    
Minimum Humidity 34    
Precipitation  
Precipitation 0.00 in - - ()
Sea Level Pressure  
Sea Level Pressure 29.93 in    
Wind  
Wind Speed 5 mph (NW)    
Max Wind Speed 14 mph    
Max Gust Speed 21 mph    
Visibility 10 miles    
Events      
Averages and records for this station are not official NWS values.
T = Trace of Precipitation, MM = Missing Value Source: NWS Daily Summary

Daily Weather History Graph

Daily Weather History Graph

Search for Another Location

Airport or City:

Trip Planner

Search our weather history database for the weather conditions in past years. The results will help you decide how hot, cold, wet, or windy it might be!

Date:

Astronomy

Apr. 26, 2014 Rise Set
Actual Time 6:45 AM EDT 8:35 PM EDT
Civil Twilight 6:15 AM EDT 9:05 PM EDT
Nautical Twilight 5:39 AM EDT 9:42 PM EDT
Astronomical Twilight 4:59 AM EDT 10:21 PM EDT
Moon 5:12 AM EDT (4/26) 6:00 PM EDT (4/26)
Length of Visible Light 14h 50m
Length of Day
13h 50m
Waning Crescent, 8% of the Moon is Illuminated
Apr 26
Waning Crescent
Apr 29
New
May 6
First Quarter
May 14
Full
May 21
Last Quarter

Hourly Weather History & Observations

Time (EDT) Temp. Windchill Dew Point Humidity Pressure Visibility Wind Dir Wind Speed Gust Speed Precip Events Conditions
12:15 AM 47.5 °F - 42.6 °F 83% 29.83 in 10.0 mi Calm Calm - N/A   Scattered Clouds
12:35 AM 48.2 °F - 43.3 °F 83% 29.82 in 10.0 mi SSW 3.5 mph - N/A   Scattered Clouds
1:15 AM 45.5 °F 44.2 °F 41.4 °F 85% 29.82 in 10.0 mi SSW 3.5 mph - N/A   Scattered Clouds
1:35 AM 45.5 °F 44.2 °F 41.9 °F 87% 29.82 in 10.0 mi SSW 3.5 mph - N/A   Scattered Clouds
1:55 AM 45.5 °F 44.2 °F 41.9 °F 87% 29.82 in 10.0 mi SSW 3.5 mph - N/A   Scattered Clouds
2:14 AM 45.3 °F 43.0 °F 41.9 °F 88% 29.82 in 10.0 mi SSW 4.6 mph - N/A   Mostly Cloudy
2:35 AM 45.7 °F 43.4 °F 41.5 °F 85% 29.81 in 10.0 mi SSW 4.6 mph - N/A   Scattered Clouds
2:55 AM 45.3 °F - 40.3 °F 83% 29.81 in 10.0 mi Calm Calm - N/A   Scattered Clouds
3:14 AM 44.8 °F - 38.8 °F 80% 29.81 in 10.0 mi Calm Calm - N/A   Scattered Clouds
3:35 AM 46.2 °F 43.3 °F 38.8 °F 75% 29.81 in 10.0 mi NNW 5.8 mph - N/A   Scattered Clouds
3:54 AM 48.4 °F - 37.9 °F 67% 29.81 in 10.0 mi West 3.5 mph - N/A   Scattered Clouds
4:15 AM 45.0 °F - 37.8 °F 76% 29.82 in 10.0 mi Calm Calm - N/A   Mostly Cloudy
4:35 AM 46.2 °F - 38.1 °F 73% 29.82 in 10.0 mi Calm Calm - N/A   Overcast
4:54 AM 48.0 °F - 38.1 °F 69% 29.83 in 10.0 mi NNW 4.6 mph - N/A   Overcast
5:15 AM 48.9 °F - 38.1 °F 66% 29.84 in 10.0 mi NNW 8.1 mph - N/A   Overcast
5:35 AM 47.5 °F - 36.5 °F 66% 29.85 in 10.0 mi NNW 5.8 mph - N/A   Overcast
5:54 AM 46.6 °F - 36.5 °F 68% 29.86 in 10.0 mi NNW 5.8 mph - N/A   Mostly Cloudy
6:15 AM 45.7 °F 44.4 °F 35.6 °F 68% 29.87 in 10.0 mi NNW 3.5 mph - N/A   Mostly Cloudy
6:34 AM 45.1 °F 42.8 °F 34.7 °F 67% 29.87 in 10.0 mi North 4.6 mph - N/A   Mostly Cloudy
6:55 AM 44.2 °F 42.7 °F 34.7 °F 69% 29.88 in 10.0 mi North 3.5 mph - N/A   Mostly Cloudy
7:14 AM 44.1 °F 42.5 °F 34.7 °F 70% 29.89 in 10.0 mi NNW 3.5 mph - N/A   Scattered Clouds
7:35 AM 43.9 °F 42.3 °F 34.9 °F 71% 29.90 in 10.0 mi NNW 3.5 mph - N/A   Scattered Clouds
7:55 AM 44.4 °F 41.2 °F 34.2 °F 67% 29.90 in 10.0 mi NNW 5.8 mph - N/A   Mostly Cloudy
8:14 AM 44.6 °F 40.2 °F 33.1 °F 64% 29.91 in 10.0 mi NW 8.1 mph - N/A   Scattered Clouds
8:35 AM 45.3 °F 40.1 °F 32.4 °F 61% 29.92 in 10.0 mi NNW 10.4 mph - N/A   Scattered Clouds
8:55 AM 46.6 °F - 33.6 °F 61% 29.92 in 10.0 mi NNW 9.2 mph - N/A   Clear
9:14 AM 47.5 °F - 33.1 °F 57% 29.93 in 10.0 mi NW 12.7 mph - N/A   Clear
9:35 AM 47.7 °F - 32.4 °F 55% 29.94 in 10.0 mi NW 11.5 mph - N/A   Clear
9:55 AM 48.9 °F - 32.2 °F 52% 29.93 in 10.0 mi NNW 11.5 mph - N/A   Clear
10:15 AM 50.0 °F - 32.2 °F 50% 29.94 in 10.0 mi NNW 11.5 mph - N/A   Clear
10:35 AM 50.9 °F - 32.7 °F 50% 29.94 in 10.0 mi NNW 6.9 mph - N/A   Clear
10:54 AM 51.4 °F - 32.2 °F 48% 29.95 in 10.0 mi North 8.1 mph 16.1 mph N/A   Clear
11:15 AM 52.2 °F - 32.5 °F 47% 29.96 in 10.0 mi NW 9.2 mph - N/A   Clear
11:34 AM 52.5 °F - 32.4 °F 46% 29.95 in 10.0 mi North 6.9 mph - N/A   Clear
11:55 AM 53.6 °F - 32.2 °F 44% 29.95 in 10.0 mi NW 9.2 mph - N/A   Clear
12:15 PM 53.8 °F - 31.5 °F 43% 29.95 in 10.0 mi WNW 10.4 mph - N/A   Clear
12:35 PM 55.4 °F - 32.0 °F 41% 29.94 in 10.0 mi WNW 12.7 mph 16.1 mph N/A   Clear
12:55 PM 56.7 °F - 30.7 °F 37% 29.94 in 10.0 mi WNW 4.6 mph - N/A   Clear
1:15 PM 57.0 °F - 31.5 °F 38% 29.95 in 10.0 mi NW 9.2 mph 17.3 mph N/A   Clear
1:35 PM 57.2 °F - 30.4 °F 36% 29.95 in 10.0 mi WNW 10.4 mph 16.1 mph N/A   Clear
1:55 PM 58.3 °F - 29.8 °F 34% 29.95 in 10.0 mi NW 10.4 mph 17.3 mph N/A   Clear
2:14 PM 58.1 °F - 30.9 °F 36% 29.96 in 10.0 mi WNW 12.7 mph 18.4 mph N/A   Clear
2:35 PM 58.5 °F - 32.0 °F 37% 29.96 in 10.0 mi WNW 13.8 mph 20.7 mph N/A   Clear
2:54 PM 57.7 °F - 30.9 °F 36% 29.96 in 10.0 mi NW 9.2 mph 19.6 mph N/A   Clear
3:15 PM 58.5 °F - 31.5 °F 36% 29.97 in 10.0 mi NW 11.5 mph 16.1 mph N/A   Clear
3:35 PM 58.5 °F - 32.7 °F 38% 29.97 in 10.0 mi NW 5.8 mph - N/A   Clear
3:54 PM 58.5 °F - 33.6 °F 39% 29.97 in 10.0 mi WNW 12.7 mph - N/A   Clear
4:15 PM 58.8 °F - 35.1 °F 41% 29.97 in 10.0 mi NW 12.7 mph - N/A   Clear
4:35 PM 58.3 °F - 34.3 °F 41% 29.97 in 10.0 mi NW 8.1 mph 16.1 mph N/A   Clear
4:54 PM 59.0 °F - 34.9 °F 40% 29.97 in 10.0 mi NW 8.1 mph - N/A   Clear
5:15 PM 58.5 °F - 32.9 °F 38% 29.97 in 10.0 mi NW 8.1 mph - N/A   Clear
5:35 PM 58.8 °F - 32.9 °F 38% 29.97 in 10.0 mi NW 8.1 mph - N/A   Clear
5:54 PM 59.2 °F - 34.5 °F 40% 29.97 in 10.0 mi NW 6.9 mph - N/A   Clear
6:15 PM 58.1 °F - 34.0 °F 40% 29.98 in 10.0 mi NW 8.1 mph - N/A   Clear
6:34 PM 57.9 °F - 34.9 °F 42% 29.97 in 10.0 mi NW 8.1 mph - N/A   Clear
6:55 PM 58.3 °F - 35.1 °F 42% 29.97 in 10.0 mi West 6.9 mph - N/A   Clear
7:15 PM 57.2 °F - 35.8 °F 45% 29.97 in 10.0 mi WNW 5.8 mph - N/A   Clear
7:34 PM 56.3 °F - 35.6 °F 46% 29.98 in 10.0 mi West 9.2 mph - N/A   Clear
7:55 PM 55.0 °F - 35.8 °F 48% 29.98 in 10.0 mi WNW 8.1 mph - N/A   Clear
8:15 PM 53.1 °F - 35.4 °F 51% 29.99 in 10.0 mi NW 8.1 mph - N/A   Clear
8:35 PM 51.8 °F - 35.2 °F 53% 30.00 in 10.0 mi NW 8.1 mph - N/A   Clear
8:55 PM 51.1 °F - 34.9 °F 54% 30.00 in 10.0 mi NNW 6.9 mph - N/A   Clear
9:15 PM 49.8 °F - 35.2 °F 57% 30.01 in 10.0 mi NW 3.5 mph - N/A   Clear
9:35 PM 48.9 °F - 34.9 °F 58% 30.02 in 10.0 mi North 3.5 mph - N/A   Clear
9:55 PM 48.2 °F - 35.4 °F 61% 30.02 in 10.0 mi North 4.6 mph - N/A   Clear
10:14 PM 48.2 °F - 35.6 °F 62% 30.02 in 10.0 mi NNW 3.5 mph - N/A   Clear
10:35 PM 47.5 °F - 35.2 °F 63% 30.03 in 10.0 mi Calm Calm - N/A   Clear
10:54 PM 49.3 °F - 33.8 °F 55% 30.03 in 10.0 mi ENE 10.4 mph - N/A   Clear
11:15 PM 49.5 °F - 33.8 °F 55% 30.02 in 10.0 mi ENE 13.8 mph - N/A   Mostly Cloudy
11:35 PM 48.7 °F - 33.8 °F 56% 30.03 in 10.0 mi East 8.1 mph - N/A   Overcast
11:54 PM 48.2 °F - 33.8 °F 58% 30.04 in 10.0 mi East 10.4 mph - N/A   Scattered Clouds